Regional Weather Roundup
Issued by NWS Mt. Holly, NJ

Home | Current Version | Previous Version | Text Only | Print | Product List | Glossary On
Versions: 1 2 3 4 5 6 7 8 9 10 11 12 13 14 15 16 17 18 19 20 21 22 23 24 25 26 27 28 29 30 31 32 33 34 35 36 37 38 39 40 41 42 43 44 45 46 47 48 49
071
ASUS41 KPHI 120012
RWRPHI

REGIONAL WEATHER ROUNDUP
NATIONAL WEATHER SERVICE MOUNT HOLLY NJ
700 PM EST THU FEB 11 2016

NOTE:  "FAIR" INDICATES FEW OR NO CLOUDS BELOW 12,000 FEET WITH NO
SIGNIFICANT WEATHER AND/OR OBSTRUCTIONS TO VISIBILITY.

 * = STATION DOES NOT REPORT PRECIPITATION (E.G. RAIN, SNOW, ETC.)
        OR FOG.

NJZ015>026-120100-
SOUTHERN NEW JERSEY

CITY           SKY/WX    TMP DP  RH WIND       PRES   REMARKS
POMONA         CLEAR     23   1  38 W14G23    30.16R WCI  11
6HR MIN TEMP:  23; 6HR MAX TEMP:  28;

WILDWOOD*      CLOUDY    25   1  36 W16G25    30.20R WCI  12
MILLVILLE      CLEAR     23   2  40 W16G23    30.18R WCI  10
WRIGHTSTOWN    MOCLDY    23   2  41 W16       30.10R WCI   9
MOUNT HOLLY    PTCLDY    23   1  38 W12G24    30.15R WCI  12
TRENTON        PTCLDY    21   8  57 W13       30.12R WCI   9
6HR MIN TEMP:  21; 6HR MAX TEMP:  27;


$$
NJZ001>014-120100-
NORTHERN NEW JERSEY

CITY           SKY/WX    TMP DP  RH WIND       PRES   REMARKS
SUSSEX         CLEAR     17  -1  45 NW9       30.06R WCI   6
ANDOVER*         N/A     17  -4  39 VRB7G18   30.07R WCI   8
MORRISTOWN     PTCLDY    19   0  42 NW14G24   30.09R WCI   6
NEWARK         PTCLDY    22  -4  32 NW20G35   30.09R WCI   7
TETERBORO      CLEAR     21  -5  31 W17G26    30.08R WCI   7
CALDWELL       CLEAR     21  -6  30 NW20G33   30.08R WCI   6
SOMERVILLE     PTCLDY    22  -2  35 NW15G23   30.09R WCI   9
ALLAIRE*       PTCLDY    21   1  42 W14G22    30.09R WCI   8
TOMS RIVER*    CLEAR     21   1  42 W16       30.12R WCI   7

$$
PAZ043-044-047-054-055-060>062-066>071-120100-
EASTERN PENNSYLVANIA

CITY           SKY/WX    TMP DP  RH WIND       PRES   REMARKS
PHILADELPHIA   PTCLDY    24  -2  32 W20G29    30.17R WCI  10
6HR MIN TEMP:  24; 6HR MAX TEMP:  27;

NORTH PHILA    PTCLDY    23   4  44 W12G21    30.16R WCI  12
BLUE BELL*       N/A     21   3  45 W5G16     30.12R WCI  15
DOYLESTOWN     PTCLDY    18   6  59 NW10      30.11R WCI   6
QUAKERTOWN*    PTCLDY    18  10  73 NW8       30.11R WCI   7
PERKASIE*      CLOUDY    18   7  62 NW8       30.11R WCI   7
POTTSTOWN      PTCLDY    20   2  45 W7G21     30.14R WCI  11
LANCASTER      CLEAR     18   2  49 W16       30.16R WCI   3
COATESVILLE    CLEAR     18   3  53 W16       30.14R WCI   3
READING        PTCLDY    20   1  43 W15       30.14R WCI   6
6HR MIN TEMP:  20; 6HR MAX TEMP:  23; 6HR PCP: TRACE;

ALLENTOWN      CLEAR     19   7  59 W10       30.11R WCI   7
6HR MIN TEMP:  19; 6HR MAX TEMP:  24; 6HR PCP: TRACE;

MOUNT POCONO   CLEAR     11  -6  46 NW16G30   29.94R WCI  -6
6HR MIN TEMP:  11; 6HR MAX TEMP:  15; 6HR PCP: TRACE;

HAZLETON       PTCLDY    14   0  52 W13G21    30.04R WCI   0
LEHIGHTON      FAIR      19   1  45 W7        30.11R WCI  10
WILKES BARRE   PTCLDY    15  -2  46 NW12G21   30.07R WCI   2

$$
DEZALL-MDZ008-012-015-019-020-120100-
DELAWARE AND EASTERN MARYLAND

CITY           SKY/WX    TMP DP  RH WIND       PRES   REMARKS
WILMINGTON     CLEAR     22   3  44 W14       30.19R WCI   9
6HR MIN TEMP:  22; 6HR MAX TEMP:  25;

DOVER          CLEAR     24   4  43 W13       30.19R WCI  12
GEORGETOWN     CLEAR     25   1  35 NW5G21    30.22R WCI  19
6HR MIN TEMP:  24; 6HR MAX TEMP:  28; 6HR PCP: TRACE;

EASTON         CLEAR     25   5  42 NW10      30.27R WCI  15
PATUXENT       PTCLDY    27   2  34 NW17      30.24R WCI  14
OCEAN CITY     CLEAR     25   3  38 NW10      30.22R WCI  15
WALLOPS ISLAND FAIR      27   4  37 NW12      30.23R WCI  17
CAMBRIDGE      PTCLDY    27   3  36 W16G23    30.24R WCI  14
SALISBURY      CLEAR     25   3  38 NW13      30.22R WCI  14

$$
PAZ001-021-NYZ056-072-MDZ011-DCZ001-120100-
OTHER NEARBY LOCATIONS

CITY           SKY/WX    TMP DP  RH WIND       PRES   REMARKS
HARRISBURG     MOCLDY    22   7  52 W18G29    30.18R WCI   7
STATE COLLEGE  PTCLDY    16  -2  45 NW14G20   30.14R WCI   1
WILLIAMSPORT   CLOUDY    19   7  59 W12       30.14R WCI   7
BINGHAMTON     FLURRIES   8   1  73 W12G22    29.99R WCI  -7
NEW YORK CITY  CLEAR     22  -6  29 NW12G25   30.09R WCI  10
BALTIMORE      PTCLDY    22   0  38 W15G28    30.23R WCI   9
WASHINGTON DC  FAIR      25   0  33 NW16G24   30.27R WCI  12

$$




USA.gov is the U.S. government's official web portal to all federal, state and local government web resources and services.